San Francisco, CA

10:59 AM PST on February 14, 2016 (GMT -0800)
San Francisco International | | Change Station
CLOSE
Current Station
Airport
Location: San Francisco,
Elevation: 16 ft
Nearby Weather Stations

Elev 16 ft 37.62 °N, 122.37 °W | Updated 3 minutes ago

Mostly Cloudy
Mostly Cloudy
59 °F
Feels Like 59 °F
N
5
Wind Variable Wind from ENE

Today
High -- | Low -- °F
--% Chance of Precip.
Yesterday
High -- | Low -- °F
Precip. -- in
Pressure 30.31 in
Visibility 10.0 miles
Clouds Few 16000 ft
Mostly Cloudy 20000 ft
Dew Point 53 °F
Humidity 81%
Rainfall 0.00 in
Snow Depth Not available.
7:00 AM 5:47 PM
Waxing Crescent, 44% visible
METAR KSFO 141856Z 07004KT 10SM FEW160 BKN200 15/12 A3031 RMK AO2 SLP262 T01500117 $
Pressure 30.31 in
Visibility 10.0 miles
Clouds Few 16000 ft
Mostly Cloudy 20000 ft
Dew Point 53 °F
Humidity 81%
Rainfall 0.00 in
Snow Depth Not available.
7:00 AM 5:47 PM
Waxing Crescent, 44% visible
METAR KSFO 141856Z 07004KT 10SM FEW160 BKN200 15/12 A3031 RMK AO2 SLP262 T01500117 $

10-Day Weather Forecast

Almanac

Astronomy

Feb. 14, 2016 Rise Set
Actual Time
Civil Twilight
Nautical Twilight
Astronomical Twilight
Moon
Length of Visible Light
Length of Day
Tomorrow will be .
, % of the Moon is Illuminated

Today's Extremes

State Highs State Lows

Community

WunderPhotos

Upload Photos

1,892,870 photos uploaded!

WunderBlog® & News

Nearby

Air Quality

  Air Quality AQ Index Pollutant
Not available.

Snow Depth

Station Depth Elevation

Earthquake Activity

City Distance Mag. Time & Date
Minimum magnitude displayed is 2.5.

Coastal Water Temperatures

Place Temperature

Stations

Nearby Weather Stations

Station Location Temp. Windchill Dew Point Humidity Wind Precip. Elev Updated Type
                   

Watches & Warnings

There are currently no watches in effect.